Home   Weather   Rastatt   Past weeks

Flag for Germany Past Weather in Rastatt, Baden-Württemberg, Germany — Yesterday and Last 2 Weeks

Now
82 °F

Sunny.


Feels Like: 82 °F
Forecast: 63 / 88 °F
Wind: 3 mph from North

Location: Karlsruhe - Baden Wurttemberg

Current Time: May 28, 2017 at 12:38:51 pm

Latest Report: May 28, 2017 at 11:50 am


Visibility: 10 mi

Pressure: 30.09 "Hg

Humidity: 42%

Dew Point: 57 °F

Location of RastattLocation

Past Weather in Rastatt — Graph

°F

Rastatt Temperature Yesterday

Maximum temperature yesterday: 86 °F (at 2:50 pm)
Minimum temperature yesterday: 55 °F (at 5:20 am)
Average temperature yesterday: 75 °F

High & Low Weather Summary for the Past Weeks

 TemperatureHumidityPressure
High86 °F (May 17, 5:20 pm)100% (May 13, 10:50 pm)30.42 "Hg (May 13, 10:50 pm)
Low39 °F (May 20, 6:20 am)27% (May 17, 6:20 pm)29.80 "Hg (May 18, 9:20 pm)
Average66 °F64%30.13 "Hg
* Reported May 13 10:20 am — May 28 10:50 am, Rastatt. Weather by CustomWeather, © 2017

Note: Actual official high and low records may vary slightly from our data, if they occured in-between our weather recording intervals... More about our weather records

Advertising

Rastatt Weather History for the Previous 24 Hours

Scroll right to see more
 ConditionsComfort  
Time TempWeatherWind HumidityBarometerVisibility
10:50 am
Sun, May 28
77 °FPassing clouds.5 mph57%30.09 "HgN/A
10:20 am75 °FPassing clouds.5 mph61%30.09 "HgN/A
9:50 am75 °FPassing clouds.5 mph57%30.09 "HgN/A
9:20 am72 °FPassing clouds.5 mph65%30.09 "HgN/A
8:50 am70 °FPassing clouds.8 mph69%30.09 "HgN/A
8:20 am68 °FSunny.5 mph73%30.09 "Hg10 mi
7:50 am64 °FSunny.3 mph83%30.09 "Hg10 mi
7:20 am63 °FSunny.1 mph88%30.09 "Hg10 mi
6:50 am61 °FSunny.No wind88%30.07 "Hg10 mi
6:20 am59 °FSunny.No wind88%30.07 "Hg10 mi
5:50 am57 °FSunny.2 mph94%30.07 "Hg10 mi
5:20 am57 °FClear.No wind94%30.07 "Hg10 mi
4:50 am57 °FClear.No wind94%30.07 "Hg10 mi
11:20 pm
Sat, May 27
68 °FClear.1 mph73%30.07 "Hg10 mi
10:50 pm70 °FClear.2 mph64%30.07 "Hg10 mi
10:20 pm70 °FClear.3 mph69%30.07 "Hg10 mi
9:50 pm73 °FClear.5 mph61%30.04 "Hg10 mi
9:20 pm75 °FClear.3 mph54%30.04 "Hg10 mi
8:50 pm79 °FSunny.5 mph48%30.04 "Hg10 mi
8:20 pm82 °FSunny.5 mph37%30.04 "Hg10 mi
7:50 pm84 °FSunny.5 mph33%30.01 "Hg10 mi
7:20 pm84 °FSunny.5 mph35%30.01 "Hg10 mi
6:50 pm86 °FSunny.6 mph33%30.01 "Hg10 mi
6:20 pm86 °FSunny.6 mph33%30.01 "Hg10 mi
5:50 pm86 °FPassing clouds.5 mph31%30.04 "HgN/A
5:20 pm86 °FPassing clouds.7 mph33%30.04 "HgN/A
4:50 pm86 °FPassing clouds.6 mph31%30.04 "HgN/A
4:20 pm86 °FSunny.3 mph29%30.04 "Hg10 mi
3:50 pm86 °FSunny.3 mph29%30.04 "Hg10 mi
3:20 pm86 °FPassing clouds.5 mph29%30.04 "HgN/A
2:50 pm86 °FPassing clouds.5 mph31%30.04 "HgN/A
2:20 pm84 °FPassing clouds.7 mph33%30.07 "HgN/A
1:50 pm82 °FPassing clouds.5 mph35%30.07 "HgN/A
1:20 pm82 °FPassing clouds.6 mph37%30.07 "HgN/A
12:50 pm81 °FPassing clouds.6 mph37%30.07 "HgN/A
12:20 pm79 °FPassing clouds.7 mph45%30.09 "HgN/A
Weather by CustomWeather, © 2017

See weather overviewHow to use our weather pages